timestamp,wind_dir_avg,wind_spd_max_dir,wind_spd_avg,wind_spd_gust,battery_voltage,lat,long
2018-02-17 00:00:00+00:00,227.0,232.0,5.23,5.69,,47.59359,-54.27349
2018-02-17 00:10:00+00:00,213.0,213.0,4.98,6.01,,47.59359,-54.27349
2018-02-17 00:20:00+00:00,208.0,207.0,6.09,6.97,,47.59359,-54.27349
2018-02-17 00:30:00+00:00,218.0,220.0,6.82,7.57,,47.59359,-54.27349
2018-02-17 00:40:00+00:00,222.0,234.0,6.84,7.86,,47.59359,-54.27349
2018-02-17 00:50:00+00:00,226.0,230.0,6.86,7.71,,47.59359,-54.27349
2018-02-17 01:00:00+00:00,233.0,234.0,6.71,7.23,,47.59359,-54.27349
2018-02-17 01:10:00+00:00,233.0,233.0,7.11,7.91,,47.59359,-54.27349
2018-02-17 01:20:00+00:00,226.0,228.0,6.47,7.15,,47.59359,-54.27349
2018-02-17 01:30:00+00:00,224.0,223.0,6.23,6.88,,47.59359,-54.27349
2018-02-17 01:40:00+00:00,224.0,232.0,6.51,7.98,,47.59359,-54.27349
2018-02-17 01:50:00+00:00,215.0,216.0,5.58,6.13,,47.59359,-54.27349
2018-02-17 02:00:00+00:00,222.0,223.0,6.78,7.77,,47.59359,-54.27349
2018-02-17 02:10:00+00:00,233.0,235.0,6.39,7.11,,47.59359,-54.27349
2018-02-17 02:20:00+00:00,237.0,245.0,5.63,6.51,,47.59359,-54.27349
2018-02-17 02:30:00+00:00,234.0,237.0,4.35,4.92,,47.59359,-54.27349
2018-02-17 02:40:00+00:00,233.0,235.0,3.91,4.56,,47.59359,-54.27349
2018-02-17 02:50:00+00:00,231.0,236.0,3.62,4.41,,47.59359,-54.27349
2018-02-17 03:00:00+00:00,225.0,234.0,3.73,4.42,,47.59359,-54.27349
2018-02-17 03:10:00+00:00,221.0,220.0,3.92,4.31,,47.59359,-54.27349
2018-02-17 03:20:00+00:00,208.0,209.0,3.81,4.09,,47.59359,-54.27349
2018-02-17 03:30:00+00:00,206.0,207.0,3.8,4.04,,47.59359,-54.27349
2018-02-17 03:40:00+00:00,211.0,210.0,5.14,5.67,,47.59359,-54.27349
2018-02-17 03:50:00+00:00,200.0,202.0,4.61,5.21,,47.59359,-54.27349
2018-02-17 04:00:00+00:00,201.0,202.0,4.68,5.2,,47.59359,-54.27349
2018-02-17 04:10:00+00:00,205.0,205.0,5.44,5.68,,47.59359,-54.27349
2018-02-17 04:20:00+00:00,209.0,208.0,4.51,4.87,,47.59359,-54.27349
2018-02-17 04:30:00+00:00,233.0,234.0,3.28,3.73,,47.59359,-54.27349
2018-02-17 04:40:00+00:00,246.0,244.0,3.41,3.76,,47.59359,-54.27349
2018-02-17 04:50:00+00:00,243.0,247.0,3.02,3.48,,47.59359,-54.27349
2018-02-17 05:00:00+00:00,246.0,248.0,2.89,3.5,,47.59359,-54.27349
2018-02-17 05:10:00+00:00,264.0,264.0,3.15,3.56,,47.59359,-54.27349
2018-02-17 05:20:00+00:00,261.0,260.0,3.44,3.75,,47.59359,-54.27349
2018-02-17 05:50:00+00:00,264.0,267.0,3.12,4.25,,47.59359,-54.27349
2018-02-17 06:00:00+00:00,247.0,242.0,3.56,3.96,,47.59359,-54.27349
2018-02-17 06:10:00+00:00,250.0,250.0,3.3,3.66,,47.59359,-54.27349
2018-02-17 06:20:00+00:00,254.0,256.0,3.51,3.95,,47.59359,-54.27349
2018-02-17 06:30:00+00:00,260.0,261.0,4.23,4.62,,47.59359,-54.27349
2018-02-17 06:40:00+00:00,266.0,270.0,4.42,5.07,,47.59359,-54.27349
2018-02-17 06:50:00+00:00,286.0,290.0,5.24,6.17,,47.59359,-54.27349
2018-02-17 07:00:00+00:00,298.0,302.0,4.34,4.94,,47.59359,-54.27349
2018-02-17 07:10:00+00:00,303.0,304.0,4.22,4.67,,47.59359,-54.27349
2018-02-17 07:20:00+00:00,316.0,320.0,3.99,4.33,,47.59359,-54.27349
2018-02-17 07:30:00+00:00,321.0,325.0,5.1,6.09,,47.59359,-54.27349
2018-02-17 07:40:00+00:00,311.0,317.0,5.12,5.79,,47.59359,-54.27349
2018-02-17 07:50:00+00:00,321.0,322.0,3.99,4.76,,47.59359,-54.27349
2018-02-17 08:00:00+00:00,319.0,319.0,8.68,10.24,,47.59359,-54.27349
2018-02-17 08:10:00+00:00,317.0,316.0,9.38,11.41,,47.59359,-54.27349
2018-02-17 08:20:00+00:00,314.0,304.0,8.35,9.91,,47.59359,-54.27349
2018-02-17 08:30:00+00:00,304.0,307.0,6.4,7.2,,47.59359,-54.27349
2018-02-17 08:40:00+00:00,317.0,321.0,8.73,10.4,,47.59359,-54.27349
2018-02-17 08:50:00+00:00,322.0,320.0,7.77,8.89,,47.59359,-54.27349
2018-02-17 09:00:00+00:00,322.0,328.0,7.38,8.48,,47.59359,-54.27349
2018-02-17 09:10:00+00:00,318.0,322.0,8.42,10.26,,47.59359,-54.27349
2018-02-17 09:20:00+00:00,312.0,309.0,6.81,7.72,,47.59359,-54.27349
2018-02-17 09:30:00+00:00,327.0,329.0,7.44,9.58,,47.59359,-54.27349
2018-02-17 09:40:00+00:00,324.0,332.0,7.9,9.17,,47.59359,-54.27349
2018-02-17 09:50:00+00:00,319.0,315.0,8.18,9.49,,47.59359,-54.27349
2018-02-17 10:00:00+00:00,321.0,326.0,6.3,7.5,,47.59359,-54.27349
2018-02-17 10:10:00+00:00,307.0,297.0,7.69,9.24,,47.59359,-54.27349
2018-02-17 10:20:00+00:00,318.0,313.0,7.92,9.94,,47.59359,-54.27349
2018-02-17 10:30:00+00:00,312.0,308.0,7.52,8.95,,47.59359,-54.27349
2018-02-17 10:40:00+00:00,317.0,307.0,7.52,10.74,,47.59359,-54.27349
2018-02-17 10:50:00+00:00,325.0,325.0,10.12,12.1,,47.59359,-54.27349
2018-02-17 11:00:00+00:00,313.0,315.0,8.88,9.95,,47.59359,-54.27349
2018-02-17 11:10:00+00:00,314.0,311.0,9.07,11.18,,47.59359,-54.27349
2018-02-17 11:20:00+00:00,321.0,322.0,9.54,11.38,,47.59359,-54.27349
2018-02-17 11:30:00+00:00,318.0,316.0,9.9,10.98,,47.59359,-54.27349
2018-02-17 11:40:00+00:00,319.0,320.0,8.71,10.94,,47.59359,-54.27349
2018-02-17 11:50:00+00:00,324.0,324.0,10.99,14.7,,47.59359,-54.27349
2018-02-17 12:00:00+00:00,326.0,321.0,10.17,12.37,,47.59359,-54.27349
2018-02-17 12:10:00+00:00,325.0,323.0,8.59,10.72,,47.59359,-54.27349
2018-02-17 12:20:00+00:00,322.0,323.0,9.39,11.68,,47.59359,-54.27349
2018-02-17 12:30:00+00:00,330.0,326.0,10.46,12.55,,47.59359,-54.27349
2018-02-17 12:40:00+00:00,326.0,308.0,6.93,8.48,,47.59359,-54.27349
2018-02-17 12:50:00+00:00,328.0,340.0,10.34,12.05,,47.59359,-54.27349
2018-02-17 13:00:00+00:00,337.0,337.0,9.98,11.86,,47.59359,-54.27349
2018-02-17 13:10:00+00:00,319.0,322.0,10.81,12.16,,47.59359,-54.27349
2018-02-17 13:20:00+00:00,320.0,308.0,9.42,11.85,,47.59359,-54.27349
2018-02-17 13:30:00+00:00,337.0,336.0,14.51,16.55,,47.59359,-54.27349
2018-02-17 13:40:00+00:00,330.0,337.0,12.63,15.04,,47.59359,-54.27349
2018-02-17 13:50:00+00:00,329.0,336.0,13.09,15.35,,47.59359,-54.27349
2018-02-17 14:00:00+00:00,322.0,324.0,8.57,10.25,,47.59359,-54.27349
2018-02-17 14:10:00+00:00,324.0,325.0,9.09,10.73,,47.59359,-54.27349
2018-02-17 14:20:00+00:00,328.0,309.0,10.98,13.9,,47.59359,-54.27349
2018-02-17 14:30:00+00:00,326.0,329.0,10.33,12.29,,47.59359,-54.27349
2018-02-17 14:40:00+00:00,329.0,337.0,11.01,14.21,,47.59359,-54.27349
2018-02-17 14:50:00+00:00,315.0,311.0,13.62,15.44,,47.59359,-54.27349
2018-02-17 15:00:00+00:00,316.0,321.0,11.17,14.71,,47.59359,-54.27349
2018-02-17 15:10:00+00:00,330.0,332.0,10.79,13.24,,47.59359,-54.27349
2018-02-17 15:20:00+00:00,328.0,322.0,13.44,14.97,,47.59359,-54.27349
2018-02-17 15:30:00+00:00,329.0,325.0,11.9,14.3,,47.59359,-54.27349
2018-02-17 15:40:00+00:00,326.0,326.0,13.36,16.95,,47.59359,-54.27349
2018-02-17 15:50:00+00:00,326.0,329.0,14.03,18.92,,47.59359,-54.27349
2018-02-17 16:00:00+00:00,316.0,308.0,15.08,19.86,,47.59359,-54.27349
2018-02-17 16:10:00+00:00,333.0,331.0,15.54,19.5,,47.59359,-54.27349
2018-02-17 16:20:00+00:00,322.0,329.0,12.71,15.2,,47.59359,-54.27349
2018-02-17 16:30:00+00:00,329.0,328.0,16.27,19.98,,47.59359,-54.27349
2018-02-17 16:40:00+00:00,326.0,330.0,13.09,15.13,,47.59359,-54.27349
2018-02-17 16:50:00+00:00,325.0,334.0,12.02,15.39,,47.59359,-54.27349
2018-02-17 17:00:00+00:00,325.0,323.0,14.8,18.52,,47.59359,-54.27349
2018-02-17 17:10:00+00:00,337.0,342.0,14.84,18.37,,47.59359,-54.27349
2018-02-17 17:20:00+00:00,335.0,334.0,13.78,16.4,,47.59359,-54.27349
2018-02-17 17:30:00+00:00,321.0,326.0,12.37,15.15,,47.59359,-54.27349
2018-02-17 17:40:00+00:00,319.0,317.0,13.88,16.13,,47.59359,-54.27349
2018-02-17 17:50:00+00:00,339.0,351.0,15.56,20.44,,47.59359,-54.27349
2018-02-17 18:00:00+00:00,324.0,327.0,14.95,19.0,,47.59359,-54.27349
2018-02-17 18:10:00+00:00,354.0,0.0,16.03,18.76,,47.59359,-54.27349
2018-02-17 18:20:00+00:00,325.0,333.0,12.92,17.53,,47.59359,-54.27349
2018-02-17 18:30:00+00:00,323.0,321.0,18.25,22.37,,47.59359,-54.27349
2018-02-17 18:40:00+00:00,323.0,323.0,14.03,19.03,,47.59359,-54.27349
2018-02-17 18:50:00+00:00,325.0,324.0,10.87,12.51,,47.59359,-54.27349
2018-02-17 19:00:00+00:00,322.0,326.0,13.61,17.2,,47.59359,-54.27349
2018-02-17 19:10:00+00:00,314.0,312.0,14.46,17.53,,47.59359,-54.27349
2018-02-17 19:20:00+00:00,327.0,349.0,13.01,17.24,,47.59359,-54.27349
2018-02-17 19:30:00+00:00,327.0,337.0,12.88,15.72,,47.59359,-54.27349
2018-02-17 19:40:00+00:00,323.0,321.0,13.1,15.95,,47.59359,-54.27349
2018-02-17 19:50:00+00:00,315.0,318.0,14.17,18.78,,47.59359,-54.27349
2018-02-17 20:00:00+00:00,321.0,321.0,13.51,17.76,,47.59359,-54.27349
2018-02-17 20:10:00+00:00,326.0,341.0,12.33,15.71,,47.59359,-54.27349
2018-02-17 20:20:00+00:00,325.0,325.0,10.33,12.52,,47.59359,-54.27349
2018-02-17 20:30:00+00:00,317.0,320.0,8.78,10.72,,47.59359,-54.27349
2018-02-17 20:40:00+00:00,320.0,328.0,8.54,14.41,,47.59359,-54.27349
2018-02-17 20:50:00+00:00,326.0,325.0,9.14,12.44,,47.59359,-54.27349
2018-02-17 21:00:00+00:00,333.0,335.0,9.82,12.1,,47.59359,-54.27349
2018-02-17 21:10:00+00:00,328.0,333.0,7.19,8.96,,47.59359,-54.27349
2018-02-17 21:20:00+00:00,332.0,333.0,8.36,11.72,,47.59359,-54.27349
2018-02-17 21:30:00+00:00,330.0,358.0,7.58,10.48,,47.59359,-54.27349
2018-02-17 21:40:00+00:00,331.0,319.0,7.09,9.26,,47.59359,-54.27349
2018-02-17 21:50:00+00:00,338.0,345.0,7.3,10.45,,47.59359,-54.27349
2018-02-17 22:00:00+00:00,335.0,330.0,6.54,7.73,,47.59359,-54.27349
2018-02-17 22:10:00+00:00,342.0,349.0,10.33,11.61,,47.59359,-54.27349
2018-02-17 22:20:00+00:00,338.0,350.0,7.29,10.68,,47.59359,-54.27349
2018-02-17 22:30:00+00:00,335.0,327.0,11.01,13.59,,47.59359,-54.27349
2018-02-17 22:40:00+00:00,334.0,339.0,10.53,12.81,,47.59359,-54.27349
2018-02-17 22:50:00+00:00,337.0,326.0,5.9,7.4,,47.59359,-54.27349
2018-02-17 23:00:00+00:00,334.0,337.0,6.59,9.07,,47.59359,-54.27349
2018-02-17 23:10:00+00:00,324.0,327.0,4.24,6.01,,47.59359,-54.27349
2018-02-17 23:20:00+00:00,334.0,325.0,5.63,6.75,,47.59359,-54.27349
2018-02-17 23:30:00+00:00,332.0,339.0,4.89,7.31,,47.59359,-54.27349
2018-02-17 23:40:00+00:00,333.0,325.0,5.4,6.77,,47.59359,-54.27349
2018-02-17 23:50:00+00:00,329.0,325.0,5.0,6.05,,47.59359,-54.27349
